EW7351 Weather Reports


time (UTC)temp
C
wind
direction
speed
KPH
gust
KPH
rain 1hr
cm
rain 24hr
cm
rain mn
cm
humidity
%
barometer
mb
20260505205852 31 221 11.3 25.7 0.00 0.00 0.00 53 1002.7
20260505205116 31 231 9.7 25.7 0.00 0.00 0.00 53 1002.6
20260505204550 31 127 9.7 19.3 0.00 0.00 0.00 55 1002.9
20260505204248 31 213 9.7 22.5 0.00 0.00 0.00 54 1003.0
20260505203500 31 120 11.3 22.5 0.00 0.00 0.00 54 1002.9
20260505203207 31 208 11.3 20.9 0.00 0.00 0.00 54 1002.9
20260505202413 30 223 9.7 20.9 0.00 0.00 0.00 56 1003.0
20260505201909 31 214 9.7 25.7 0.00 0.00 0.00 55 1003.1
20260505201351 30 133 11.3 25.7 0.00 0.00 0.00 55 1003.1
20260505200842 30 217 9.7 20.9 0.00 0.00 0.00 58 1003.3
20260505200316 30 139 9.7 20.9 0.00 0.00 0.00 55 1003.1
20260505200018 30 240 8.0 20.9 0.00 0.00 0.00 55 1003.2
20260505195224 30 245 8.0 20.9 0.00 0.00 0.00 58 1003.1
20260505194921 30 243 11.3 20.9 0.00 0.00 0.00 60 1003.2
20260505194134 30 124 11.3 20.9 0.00 0.00 0.00 58 1003.4
20260505193631 30 128 9.7 20.9 0.00 0.00 0.00 60 1003.2
20260505193131 29 229 11.3 25.7 0.00 0.00 0.00 60 1003.1
20260505192600 29 236 11.3 25.7 0.00 0.00 0.00 60 1003.3
20260505192318 29 217 11.3 24.1 0.00 0.00 0.00 60 1003.3
20260505191819 28 161 11.3 24.1 0.00 0.00 0.00 60 1003.3
20260505191322 28 191 9.7 24.1 0.00 0.00 0.00 61 1003.4
20260505190600 28 237 9.7 22.5 0.00 0.00 0.00 61 1003.4
20260505190035 28 210 9.7 22.5 0.00 0.00 0.00 61 1003.5
20260505185537 28 240 11.3 22.5 0.00 0.00 0.00 62 1003.5
20260505185006 28 154 9.7 25.7 0.00 0.00 0.00 61 1003.5
20260505184505 28 166 11.3 25.7 0.00 0.00 0.00 63 1003.6
20260505184005 28 219 12.9 25.7 0.00 0.00 0.00 62 1003.6
20260505183503 28 202 12.9 22.5 0.00 0.00 0.00 61 1003.6
20260505182959 28 174 12.9 24.1 0.00 0.00 0.00 62 1003.6
20260505182653 28 136 12.9 22.5 0.00 0.00 0.00 62 1003.6
20260505181927 28 231 12.9 29.0 0.00 0.00 0.00 62 1003.7
20260505181424 28 228 14.5 29.0 0.00 0.00 0.00 62 1003.7
20260505180920 28 143 12.9 22.5 0.00 0.00 0.00 61 1003.7
20260505180416 28 141 12.9 20.9 0.00 0.00 0.00 61 1003.7
20260505175914 28 224 14.5 24.1 0.00 0.00 0.00 62 1003.7
20260505175344 28 173 12.9 24.1 0.00 0.00 0.00 61 1003.7
20260505174845 28 234 11.3 20.9 0.00 0.00 0.00 61 1003.8
20260505174545 28 204 11.3 20.9 0.00 0.00 0.00 61 1003.8
20260505173802 28 236 11.3 24.1 0.00 0.00 0.00 61 1003.8
20260505173302 28 172 12.9 24.1 0.00 0.00 0.00 62 1003.7
20260505172732 28 174 12.9 25.7 0.00 0.00 0.00 63 1003.8
20260505172218 27 257 12.9 25.7 0.00 0.00 0.00 62 1003.7
20260505171718 27 150 12.9 22.5 0.00 0.00 0.00 63 1003.8
20260505171217 27 221 14.5 25.7 0.00 0.00 0.00 63 1003.9
20260505170723 27 160 16.1 33.8 0.00 0.00 0.00 63 1004.0
20260505170434 27 249 14.5 33.8 0.00 0.00 0.00 63 1003.9
20260505165711 27 166 12.9 25.7 0.00 0.00 0.00 64 1003.9
20260505165431 27 205 12.9 25.7 0.00 0.00 0.00 65 1003.9
20260505164705 27 275 12.9 32.2 0.00 0.00 0.00 64 1003.9
20260505164202 27 175 14.5 32.2 0.00 0.00 0.00 64 1003.8
20260505163701 27 257 14.5 30.6 0.00 0.00 0.00 65 1003.8
20260505163137 27 107 14.5 30.6 0.00 0.00 0.00 65 1003.8
20260505162606 26 205 12.9 25.7 0.00 0.00 0.00 66 1003.9
20260505162106 26 210 12.9 27.4 0.00 0.00 0.00 65 1003.6
20260505161537 26 169 12.9 27.4 0.00 0.00 0.00 65 1003.5
20260505161038 26 258 12.9 25.7 0.00 0.00 0.00 66 1003.6
20260505160509 26 136 12.9 27.4 0.00 0.00 0.00 68 1003.6
20260505153357 25 240 14.5 25.7 0.00 0.00 0.00 72 1003.8
20260505153117 25 182 14.5 24.1 0.00 0.00 0.00 72 1003.7
20260505152617 24 174 12.9 27.4 0.00 0.00 0.00 72 1003.8
20260505151848 24 185 12.9 27.4 0.00 0.00 0.00 73 1003.8
20260505151323 24 221 12.9 29.0 0.00 0.00 0.00 73 1003.9
20260505150754 24 170 11.3 29.0 0.00 0.00 0.00 73 1003.8
20260505150251 23 236 11.3 22.5 0.00 0.00 0.00 74 1003.9
20260505140546 22 143 12.9 30.6 0.00 0.00 0.00 77 1003.6
20260505130244 22 207 9.7 22.5 0.00 0.00 0.00 79 1003.6
20260505124712 21 203 9.7 24.1 0.00 0.00 0.00 79 1003.5
20260505124144 21 176 9.7 22.5 0.00 0.00 0.00 79 1003.3
20260505123643 21 141 11.3 24.1 0.00 0.00 0.00 79 1003.0
20260505123347 21 221 11.3 24.1 0.00 0.00 0.00 79 1003.1
20260505122548 21 214 11.3 29.0 0.00 0.00 0.00 79 1003.1
20260505122313 21 170 11.3 29.0 0.00 0.00 0.00 79 1003.0
20260505121522 21 223 9.7 25.7 0.00 0.00 0.00 79 1003.1
20260505120955 21 231 8.0 17.7 0.00 0.00 0.00 79 1003.0
20260505120649 21 246 8.0 17.7 0.00 0.00 0.00 79 1003.0
20260505120408 21 223 9.7 19.3 0.00 0.00 0.00 79 1002.9
20260505115357 21 229 12.9 25.7 0.00 0.00 0.00 79 1002.9
20260505114855 21 124 12.9 29.0 0.00 0.00 0.00 79 1002.9
20260505114328 21 203 12.9 29.0 0.00 0.00 0.00 79 1002.8
20260505113824 21 179 11.3 25.7 0.00 0.00 0.00 79 1002.7
20260505113323 21 188 12.9 25.7 0.00 0.00 0.00 79 1002.6
20260505112802 21 158 12.9 25.7 0.00 0.00 0.00 79 1002.6
20260505112225 21 164 11.3 22.5 0.00 0.00 0.00 79 1002.6
20260505111725 21 245 9.7 20.9 0.00 0.00 0.00 79 1002.8
20260505111417 21 248 11.3 22.5 0.00 0.00 0.00 79 1002.9
20260505110654 21 152 9.7 22.5 0.00 0.00 0.00 79 1002.8
20260505110142 21 167 9.7 20.9 0.00 0.00 0.00 79 1002.7
20260505102017 21 205 11.3 27.4 0.00 0.00 0.00 78 1002.9
20260505101520 21 129 11.3 20.9 0.00 0.00 0.00 78 1002.8
20260505101014 21 207 11.3 22.5 0.00 0.00 0.00 78 1002.8
20260505100729 21 235 12.9 35.4 0.00 0.00 0.00 78 1002.8
20260505095953 21 283 12.9 35.4 0.00 0.00 0.00 78 1002.8
20260505095454 21 221 12.9 29.0 0.00 0.00 0.00 78 1003.0
20260505094955 21 225 12.9 27.4 0.00 0.00 0.00 78 1003.0
20260505094451 21 153 14.5 25.7 0.00 0.00 0.00 78 1003.0
20260505093949 21 248 14.5 27.4 0.00 0.00 0.00 78 1003.1
20260505093426 21 226 14.5 27.4 0.00 0.00 0.00 78 1003.0
20260505092929 21 173 12.9 27.4 0.00 0.00 0.00 78 1003.2
20260505092405 21 217 12.9 25.7 0.00 0.00 0.00 78 1003.3
20260505091839 21 210 12.9 25.7 0.00 0.00 0.00 78 1003.2
20260505091601 21 137 12.9 25.7 0.00 0.00 0.00 78 1003.2
20260505090838 21 225 11.3 27.4 0.00 0.00 0.00 78 1003.3
20260505090325 21 161 12.9 29.0 0.00 0.00 0.00 78 1003.1
20260505085759 21 155 12.9 29.0 0.00 0.00 0.00 78 1003.1
20260505085253 21 219 14.5 29.0 0.00 0.00 0.00 78 1003.2
20260505085020 21 250 14.5 29.0 0.00 0.00 0.00 78 1003.1
20260505084254 21 224 12.9 25.7 0.00 0.00 0.00 78 1003.1
20260505083726 21 238 12.9 27.4 0.00 0.00 0.00 78 1003.1
20260505083225 21 225 12.9 27.4 0.00 0.00 0.00 78 1003.1
20260505083205 21 151 14.5 30.6 0.00 0.00 0.00 78 1003.2
20260505082222 21 250 12.9 30.6 0.00 0.00 0.00 78 1003.3
20260505081721 21 216 12.9 25.7 0.00 0.00 0.00 78 1003.3
20260505081650 21 191 14.5 24.1 0.00 0.00 0.00 78 1003.2
20260505080703 21 224 12.9 24.1 0.00 0.00 0.00 78 1003.2
20260505080653 21 215 12.9 24.1 0.00 0.00 0.00 78 1003.4
20260505075703 21 146 12.9 24.1 0.00 0.00 0.00 78 1003.5
20260505075204 21 232 11.3 25.7 0.00 0.00 0.00 78 1003.5
20260505074636 21 221 12.9 29.0 0.00 0.00 0.00 77 1003.7
20260505074136 21 161 12.9 29.0 0.00 0.00 0.00 77 1003.8
20260505073608 21 234 11.3 27.4 0.00 0.00 0.00 77 1003.9
20260505073109 21 211 9.7 22.5 0.00 0.00 0.00 77 1003.9
20260505072607 21 164 11.3 30.6 0.00 0.00 0.00 77 1004.1
20260505072304 22 198 12.9 30.6 0.00 0.00 0.00 76 1004.1
20260505071537 22 156 14.5 35.4 0.00 0.00 0.00 76 1004.0
20260505071436 22 107 14.5 38.6 0.00 0.00 0.00 76 1004.1
20260505071103 22 135 14.5 35.4 0.00 0.00 0.00 76 1004.0
20260505070011 22 150 14.5 38.6 0.00 0.00 0.00 75 1004.1
20260505065447 22 195 14.5 30.6 0.00 0.00 0.00 75 1004.2
20260505064943 22 250 14.5 30.6 0.00 0.00 0.00 75 1004.3
20260505064445 22 107 12.9 25.7 0.00 0.00 0.00 75 1004.4
20260505063920 22 245 12.9 25.7 0.00 0.00 0.00 75 1004.3
20260505063351 22 207 11.3 25.7 0.00 0.00 0.00 75 1004.3
20260505062844 22 243 11.3 27.4 0.00 0.00 0.00 75 1004.4
20260505062341 22 205 12.9 27.4 0.00 0.00 0.00 74 1004.3
20260505061838 22 159 11.3 19.3 0.00 0.00 0.00 74 1004.4
20260505061335 22 239 11.3 24.1 0.00 0.00 0.00 74 1004.5
20260505061033 22 186 11.3 22.5 0.00 0.00 0.00 74 1004.4
20260505060547 22 181 9.7 20.9 0.00 0.00 0.00 74 1004.5
20260505060443 22 205 9.7 20.9 0.00 0.00 0.00 73 1004.7
20260505055215 22 168 11.3 20.9 0.00 0.00 0.00 73 1004.5
20260505054713 22 176 11.3 27.4 0.00 0.00 0.00 73 1004.6
20260505054155 22 219 11.3 27.4 0.00 0.00 0.00 72 1004.7
20260505053654 22 208 9.7 22.5 0.00 0.00 0.00 72 1004.8
20260505053127 22 145 9.7 22.5 0.00 0.00 0.00 72 1004.9
20260505052627 22 168 9.7 22.5 0.00 0.00 0.00 72 1004.8
20260505052129 22 226 9.7 25.7 0.00 0.00 0.00 72 1004.8
20260505051625 22 173 9.7 25.7 0.00 0.00 0.00 71 1005.0
20260505051125 22 145 9.7 19.3 0.00 0.00 0.00 71 1005.0
20260505050556 22 238 9.7 16.1 0.00 0.00 0.00 71 1004.9
20260505041413 22 221 8.0 17.7 0.00 0.00 0.00 69 1005.2
20260505040901 22 235 8.0 17.7 0.00 0.00 0.00 69 1005.2
20260505040622 22 167 6.4 16.1 0.00 0.00 0.00 69 1005.3
20260505035836 22 229 6.4 16.1 0.00 0.00 0.00 68 1005.2
20260505035334 22 246 6.4 19.3 0.00 0.00 0.00 68 1005.2
20260505034805 22 213 6.4 19.3 0.00 0.00 0.00 68 1005.0
20260505034303 22 249 4.8 17.7 0.00 0.00 0.00 67 1005.0
20260505033739 23 105 6.4 17.7 0.00 0.00 0.00 67 1005.0
20260505033209 23 140 8.0 20.9 0.00 0.00 0.00 66 1005.1
20260505032708 23 233 8.0 20.9 0.00 0.00 0.00 66 1005.2
20260505032140 23 240 8.0 17.7 0.00 0.00 0.00 66 1005.1
20260505031859 23 146 6.4 17.7 0.00 0.00 0.00 66 1005.2
20260505031109 23 174 6.4 16.1 0.00 0.00 0.00 66 1005.2
20260505030609 23 243 4.8 16.1 0.00 0.00 0.00 66 1005.1
20260505030042 23 157 6.4 14.5 0.00 0.00 0.00 65 1005.1
20260505025515 23 193 6.4 12.9 0.00 0.00 0.00 65 1005.2
20260505025011 23 238 6.4 14.5 0.00 0.00 0.00 65 1005.2
20260505024509 23 200 4.8 14.5 0.00 0.00 0.00 65 1005.2
20260505023940 23 252 6.4 12.9 0.00 0.00 0.00 65 1005.1
20260505023437 23 220 6.4 12.9 0.00 0.00 0.00 64 1005.0
20260505022910 23 250 6.4 16.1 0.00 0.00 0.00 64 1004.9
20260505022342 23 133 4.8 16.1 0.00 0.00 0.00 64 1005.0
20260505021841 23 175 4.8 17.7 0.00 0.00 0.00 64 1005.0
20260505021533 23 202 6.4 17.7 0.00 0.00 0.00 63 1004.9
20260505021035 23 223 6.4 16.1 0.00 0.00 0.00 63 1004.9
20260505020243 23 232 6.4 14.5 0.00 0.00 0.00 63 1004.9
20260505015743 23 142 6.4 19.3 0.00 0.00 0.00 62 1004.9
20260505015217 23 234 8.0 19.3 0.00 0.00 0.00 62 1004.9
20260505014652 24 232 8.0 22.5 0.00 0.00 0.00 62 1005.0
20260505014146 24 171 9.7 22.5 0.00 0.00 0.00 61 1005.0
20260505013643 24 216 9.7 20.9 0.00 0.00 0.00 61 1004.9
20260505013137 24 219 9.7 20.9 0.00 0.00 0.00 61 1004.9
20260505012611 24 234 9.7 27.4 0.00 0.00 0.00 61 1004.8
20260505012111 24 221 11.3 27.4 0.00 0.00 0.00 61 1004.8
20260505011547 24 270 9.7 24.1 0.00 0.00 0.00 60 1004.8
20260505011021 24 160 9.7 24.1 0.00 0.00 0.00 60 1004.8
20260505010522 24 154 11.3 20.9 0.00 0.00 0.00 60 1004.8
20260505005957 25 233 12.9 22.5 0.00 0.00 0.00 59 1004.7
20260505005435 25 257 11.3 22.5 0.00 0.00 0.00 59 1004.8
20260505004934 25 351 9.7 27.4 0.00 0.00 0.00 59 1004.9
20260505004654 25 200 11.3 27.4 0.00 0.00 0.00 58 1004.9
20260505003934 25 175 12.9 30.6 0.00 0.00 0.00 58 1005.0
20260505003418 25 131 14.5 30.6 0.00 0.00 0.00 57 1004.9
20260505002918 25 139 16.1 32.2 0.00 0.00 0.00 57 1004.8
20260505002356 25 179 14.5 32.2 0.00 0.00 0.00 56 1004.8
20260505001842 25 225 12.9 29.0 0.00 0.00 0.00 56 1005.0
20260505001829 25 164 12.9 29.0 0.00 0.00 0.00 56 1005.0
20260505000821 25 153 14.5 27.4 0.00 0.00 0.00 56 1005.1
20260505000310 25 207 14.5 27.4 0.00 0.00 0.00 56 1005.0
20260504235809 25 234 12.9 27.4 0.00 0.00 0.00 56 1005.2
20260504235306 25 155 12.9 27.4 0.00 0.00 0.00 55 1005.1
20260504234805 25 201 14.5 29.0 0.00 0.00 0.00 55 1005.2
20260504234304 25 231 16.1 30.6 0.00 0.00 0.00 55 1005.2
20260504233738 25 101 16.1 37.0 0.00 0.00 0.00 55 1005.2
20260504233120 26 237 14.5 30.6 0.00 0.00 0.00 55 1005.2
20260504232600 26 257 16.1 35.4 0.00 0.00 0.00 55 1005.1
20260504232100 26 219 16.1 35.4 0.00 0.00 0.00 54 1005.2
20260504231602 26 234 14.5 32.2 0.00 0.00 0.00 54 1005.5
20260504231041 26 229 14.5 30.6 0.00 0.00 0.00 53 1005.5
20260504230515 26 178 16.1 33.8 0.00 0.00 0.00 52 1005.5
20260504225950 26 132 14.5 33.8 0.00 0.00 0.00 51 1005.6
20260504225450 27 178 14.5 27.4 0.00 0.00 0.00 52 1005.6
20260504224950 27 222 14.5 30.6 0.00 0.00 0.00 52 1005.7
20260504224446 27 224 14.5 30.6 0.00 0.00 0.00 53 1005.8
20260504223949 26 155 16.1 29.0 0.00 0.00 0.00 52 1005.6
20260504223446 27 274 14.5 29.0 0.00 0.00 0.00 52 1005.6
20260504222949 26 175 14.5 25.7 0.00 0.00 0.00 52 1005.5
20260504222421 27 195 14.5 29.0 0.00 0.00 0.00 52 1005.7
20260504222119 27 134 16.1 32.2 0.00 0.00 0.00 52 1005.7
20260504221402 27 210 17.7 38.6 0.00 0.00 0.00 51 1005.8
20260504220857 27 218 17.7 38.6 0.00 0.00 0.00 51 1005.8
20260504220357 27 158 16.1 35.4 0.00 0.00 0.00 51 1006.0
20260504215855 27 165 16.1 35.4 0.00 0.00 0.00 51 1006.0
20260504215331 27 231 16.1 32.2 0.00 0.00 0.00 51 1006.1
20260504214803 27 173 16.1 32.2 0.00 0.00 0.00 52 1006.2
20260504214242 26 249 14.5 27.4 0.00 0.00 0.00 52 1006.3
20260504213735 26 114 16.1 27.4 0.00 0.00 0.00 52 1006.3
20260504213459 26 205 17.7 33.8 0.00 0.00 0.00 51 1006.4
20260504212707 26 225 16.1 33.8 0.00 0.00 0.00 50 1006.5
20260504212139 26 159 16.1 30.6 0.00 0.00 0.00 51 1006.7
20260504211614 26 167 16.1 29.0 0.00 0.00 0.00 51 1006.7
20260504211109 26 139 14.5 30.6 0.00 0.00 0.00 51 1006.8
20260504210602 26 178 16.1 30.6 0.00 0.00 0.00 49 1006.8